"startDT [UTC]","vpos","CH4 [ppm]","stdev(CH4) [ppm]","CO2 [ppm]","stdev(CO2) [ppm]","H2O_reported [%]","stdev(H2O_reported)","CavityPressure [torr]","CavityTemp [C]","OutletValve","CH4_dry [ppm]","CO2_dry [ppm]","DasTemp [C]","EtalonTemp [C]","WarmBoxTemp [C]","MPVPosition","T_ECpre [C]","T_EC1 [C]","T_EC2 [C]","p_inlet [hPa]","p_in [hPa]","p_out [hPa]","T_inlet [C]","RH_inlet [%]","dwpt_inlet [C]","T_vent [C]","RH_vent [%]","dwpt_vent [C]","flow_vent [l min-1]","flow_inlet [l min-1]","dwpt_sample [C]","T_room [C]"
2015-03-04 00:00:00,0.0,1.93694,0.00040,405.240,0.030,0.0827,0.0017,140.000,45.000,34240.72921,1.93854,405.643,34.686,45.067,45.000,0.00,0.09,-272.70,-272.76,-0,965,-3,20.8,2.7,-27.1,21.1,2.7,-26.7,5.73,2.02,-20.4,27.5
2015-03-04 00:01:00,0.0,1.93689,0.00047,405.244,0.054,0.0834,0.0018,140.003,45.000,34238.20282,1.93848,405.651,34.689,45.067,45.000,0.00,0.09,-272.69,-272.76,0,964,-3,20.8,2.7,-27.1,21.1,2.7,-26.8,5.73,2.00,-20.4,27.4
2015-03-04 00:02:00,0.0,1.93656,0.00037,405.227,0.039,0.0830,0.0013,140.002,45.000,34239.01321,1.93814,405.630,34.689,45.067,45.000,0.00,0.09,-272.70,-272.76,0,964,-3,20.8,2.7,-27.1,21.1,2.7,-26.7,5.73,1.96,-20.4,27.4
2015-03-04 00:03:00,0.0,1.93701,0.00036,405.257,0.054,0.0831,0.0021,139.999,45.000,34239.01568,1.93860,405.663,34.686,45.067,45.000,0.00,0.09,-272.70,-272.76,0,963,-3,20.8,2.7,-27.1,21.1,2.7,-26.8,5.73,1.94,-20.4,27.5
2015-03-04 00:04:00,0.0,1.93680,0.00032,405.239,0.031,0.0835,0.0017,139.998,45.000,34240.52238,1.93840,405.645,34.690,45.067,45.000,0.00,0.09,-272.70,-272.75,-0,964,-3,20.8,2.7,-27.0,21.1,2.7,-26.7,5.73,1.95,-20.4,27.5
2015-03-04 00:05:00,0.0,1.93659,0.00029,405.247,0.030,0.0833,0.0016,140.000,45.000,34242.82837,1.93816,405.654,34.685,45.067,45.000,0.00,0.09,-272.70,-272.76,-0,965,-3,20.8,2.7,-27.0,21.1,2.7,-26.7,5.73,1.98,-20.4,27.5
2015-03-04 00:06:00,0.0,1.93684,0.00029,405.283,0.048,0.0833,0.0014,139.997,45.000,34240.57974,1.93841,405.688,34.652,45.067,45.000,0.00,0.09,-272.70,-272.76,0,965,-3,20.8,2.7,-26.9,21.1,2.7,-26.7,5.73,2.02,-20.4,27.5
2015-03-04 00:07:00,0.0,1.93726,0.00038,405.262,0.025,0.0836,0.0016,140.002,45.000,34240.65967,1.93889,405.671,34.634,45.068,45.000,0.00,0.09,-272.70,-272.76,0,964,-3,20.8,2.7,-26.9,21.1,2.7,-26.7,5.73,2.03,-20.4,27.4
2015-03-04 00:08:00,0.0,1.93693,0.00035,405.263,0.036,0.0842,0.0017,139.998,45.000,34240.32682,1.93850,405.673,34.624,45.068,45.000,0.00,0.09,-272.70,-272.75,0,963,-3,20.8,2.8,-26.9,21.1,2.8,-26.7,5.73,2.01,-20.4,27.4
2015-03-04 00:09:00,0.0,1.93738,0.00036,405.291,0.027,0.0841,0.0015,140.000,45.000,34239.88283,1.93898,405.700,34.616,45.068,45.001,0.00,0.09,-272.70,-272.76,-0,963,-3,20.8,2.7,-26.9,21.1,2.8,-26.7,5.73,1.98,-20.4,27.5
2015-03-04 00:10:00,0.0,1.93762,0.00044,405.287,0.027,0.0839,0.0013,139.996,45.000,34239.69299,1.93923,405.696,34.596,45.068,45.001,0.00,0.09,-272.70,-272.75,-1,964,-3,20.8,2.7,-27.0,21.1,2.8,-26.7,5.73,1.95,-20.4,27.5
2015-03-04 00:11:00,0.0,1.93756,0.00032,405.311,0.030,0.0832,0.0015,139.999,45.000,34241.54934,1.93914,405.717,34.567,45.068,45.001,0.00,0.09,-272.70,-272.75,-1,964,-3,20.8,2.7,-27.0,21.1,2.7,-26.8,5.73,1.94,-20.4,27.5
2015-03-04 00:12:00,0.0,1.93791,0.00046,405.343,0.032,0.0828,0.0015,139.997,45.000,34237.40967,1.93947,405.746,34.563,45.068,45.001,0.00,0.09,-272.70,-272.76,-0,965,-3,20.8,2.7,-27.1,21.1,2.7,-26.8,5.73,1.97,-20.4,27.4
2015-03-04 00:13:00,0.0,1.93822,0.00036,405.347,0.024,0.0824,0.0016,139.999,45.000,34240.27083,1.93980,405.749,34.563,45.068,45.001,0.00,0.09,-272.70,-272.76,0,964,-3,20.8,2.7,-27.1,21.1,2.7,-26.8,5.73,2.02,-20.4,27.5
2015-03-04 00:14:00,0.0,1.93775,0.00032,405.341,0.033,0.0822,0.0019,140.001,45.000,34243.88655,1.93932,405.742,34.564,45.068,45.001,0.00,0.09,-272.69,-272.75,0,963,-3,20.8,2.7,-27.1,21.1,2.7,-26.9,5.73,2.03,-20.4,27.4
2015-03-04 00:15:00,0.0,1.93789,0.00038,405.332,0.028,0.0816,0.0013,139.996,45.000,34242.10822,1.93945,405.730,34.568,45.068,45.000,0.00,0.09,-272.69,-272.76,-0,963,-3,20.8,2.7,-27.1,21.1,2.7,-26.9,5.73,2.01,-20.4,27.5
2015-03-04 00:16:00,0.0,1.93778,0.00032,405.322,0.025,0.0821,0.0015,140.003,45.000,34245.95006,1.93935,405.723,34.563,45.068,45.000,0.00,0.09,-272.70,-272.76,-0,964,-3,20.8,2.7,-27.1,21.1,2.7,-26.9,5.73,1.97,-20.4,27.5
2015-03-04 00:17:00,0.0,1.93764,0.00038,405.328,0.029,0.0823,0.0016,139.998,45.000,34244.60864,1.93919,405.729,34.584,45.067,45.000,0.00,0.09,-272.70,-272.75,-0,964,-3,20.8,2.7,-27.1,21.2,2.7,-26.9,5.73,1.94,-20.4,27.5
2015-03-04 00:18:00,0.0,1.93790,0.00037,405.335,0.031,0.0822,0.0015,139.997,45.000,34241.83657,1.93947,405.736,34.620,45.067,45.000,0.00,0.09,-272.69,-272.75,0,965,-3,20.8,2.7,-27.1,21.1,2.7,-26.9,5.73,1.94,-20.4,27.4
2015-03-04 00:19:00,0.0,1.93764,0.00047,405.317,0.027,0.0822,0.0018,140.004,45.000,34246.36368,1.93924,405.720,34.653,45.067,45.000,0.00,0.09,-272.71,-272.76,0,963,-3,20.8,2.7,-27.1,21.1,2.7,-26.9,5.73,1.97,-20.4,27.4
2015-03-04 00:20:00,0.0,1.93693,0.00037,405.290,0.029,0.0834,0.0019,140.001,45.000,34245.98231,1.93851,405.696,34.680,45.067,44.999,0.00,0.09,-272.70,-272.76,0,963,-3,20.8,2.7,-27.1,21.1,2.7,-26.9,5.73,2.02,-20.4,27.4
2015-03-04 00:21:00,0.0,1.93705,0.00045,405.262,0.034,0.0836,0.0016,140.001,45.000,34241.03588,1.93867,405.672,34.682,45.067,44.999,0.00,0.09,-272.70,-272.75,-0,962,-3,20.8,2.7,-27.0,21.2,2.7,-26.7,5.73,2.04,-20.4,27.4
2015-03-04 00:22:00,0.0,1.93663,0.00036,405.223,0.035,0.0844,0.0014,139.998,45.000,34243.23076,1.93826,405.635,34.686,45.067,44.999,0.00,0.09,-272.70,-272.76,-1,963,-3,20.8,2.8,-26.8,21.2,2.7,-26.7,5.73,2.02,-20.4,27.4
2015-03-04 00:23:00,0.0,1.93686,0.00037,405.249,0.039,0.0852,0.0017,139.999,45.000,34243.07768,1.93847,405.662,34.681,45.067,44.999,0.00,0.09,-272.70,-272.76,-1,964,-3,20.8,2.8,-26.8,21.2,2.8,-26.6,5.73,1.96,-20.3,27.5
2015-03-04 00:24:00,0.0,1.93727,0.00029,405.276,0.036,0.0852,0.0015,139.999,45.000,34242.00338,1.93887,405.691,34.649,45.067,45.000,0.00,0.09,-272.70,-272.75,-1,965,-3,20.8,2.8,-26.8,21.2,2.8,-26.6,5.73,1.93,-20.3,27.4
2015-03-04 00:25:00,0.0,1.93745,0.00043,405.286,0.031,0.0853,0.0014,139.998,45.000,34238.38326,1.93908,405.701,34.626,45.067,45.000,0.00,0.09,-272.70,-272.75,-0,965,-3,20.8,2.8,-26.8,21.2,2.8,-26.6,5.73,1.93,-20.3,27.4
2015-03-04 00:26:00,0.0,1.93736,0.00033,405.280,0.030,0.0849,0.0019,139.997,45.000,34237.76857,1.93898,405.695,34.626,45.067,45.000,0.00,0.09,-272.71,-272.76,0,964,-3,20.9,2.8,-26.8,21.2,2.8,-26.6,5.73,1.97,-20.3,27.4
2015-03-04 00:27:00,0.0,1.93730,0.00038,405.298,0.028,0.0858,0.0017,139.999,45.000,34239.16576,1.93894,405.717,34.625,45.068,45.000,0.00,0.09,-272.70,-272.76,1,963,-3,20.8,2.8,-26.8,21.2,2.8,-26.6,5.73,2.02,-20.3,27.4
2015-03-04 00:28:00,0.0,1.93724,0.00032,405.287,0.025,0.0851,0.0016,139.999,45.000,34238.93594,1.93884,405.702,34.623,45.068,45.000,0.00,0.09,-272.69,-272.75,0,963,-3,20.8,2.8,-26.7,21.2,2.8,-26.6,5.73,2.04,-20.3,27.5
2015-03-04 00:29:00,0.0,1.93710,0.00044,405.268,0.039,0.0860,0.0021,139.999,45.000,34238.50177,1.93876,405.689,34.623,45.068,45.000,0.00,0.09,-272.70,-272.76,-0,963,-3,20.9,2.8,-26.7,21.2,2.8,-26.6,5.73,2.01,-20.3,27.5
2015-03-04 00:30:00,0.0,1.93651,0.00042,405.212,0.042,0.0867,0.0018,139.996,45.000,34237.65801,1.93821,405.634,34.622,45.068,45.000,0.00,0.09,-272.70,-272.76,-1,963,-3,20.9,2.8,-26.6,21.2,2.8,-26.5,5.73,1.95,-20.3,27.4
2015-03-04 00:31:00,0.0,1.93667,0.00034,405.202,0.030,0.0869,0.0013,139.996,45.000,34236.73116,1.93830,405.626,34.614,45.068,45.000,0.00,0.09,-272.69,-272.75,-0,965,-3,20.9,2.8,-26.5,21.2,2.8,-26.3,5.73,1.93,-20.3,27.4
2015-03-04 00:32:00,0.0,1.93641,0.00037,405.222,0.028,0.0879,0.0010,139.999,45.000,34236.17842,1.93808,405.651,34.619,45.067,45.000,0.00,0.09,-272.70,-272.76,-0,965,-3,20.8,2.8,-26.5,21.2,2.8,-26.3,5.73,1.94,-20.3,27.5
2015-03-04 00:33:00,0.0,1.93652,0.00033,405.220,0.037,0.0888,0.0018,140.001,45.000,34238.54843,1.93824,405.653,34.618,45.067,45.000,0.00,0.09,-272.71,-272.76,0,964,-3,20.9,2.8,-26.5,21.2,2.9,-26.2,5.73,1.99,-20.3,27.5
2015-03-04 00:34:00,0.0,1.93670,0.00035,405.222,0.040,0.0880,0.0022,140.001,45.000,34237.86045,1.93837,405.650,34.622,45.067,45.000,0.00,0.09,-272.70,-272.76,0,962,-3,20.9,2.9,-26.4,21.2,2.9,-26.2,5.73,2.02,-20.3,27.5
2015-03-04 00:35:00,0.0,1.93689,0.00027,405.241,0.042,0.0884,0.0016,139.998,45.000,34235.50098,1.93856,405.672,34.625,45.067,45.000,0.00,0.09,-272.70,-272.75,-0,963,-3,20.9,2.8,-26.5,21.2,2.9,-26.2,5.73,2.03,-20.3,27.5
2015-03-04 00:36:00,0.0,1.93694,0.00030,405.243,0.028,0.0883,0.0016,139.996,45.000,34234.51116,1.93863,405.676,34.625,45.067,45.000,0.00,0.09,-272.70,-272.76,0,962,-3,20.9,2.8,-26.5,21.2,2.9,-26.2,5.73,2.00,-20.3,27.5
2015-03-04 00:37:00,0.0,1.93712,0.00039,405.236,0.029,0.0884,0.0018,139.999,45.000,34236.42478,1.93881,405.665,34.624,45.067,45.000,0.00,0.09,-272.70,-272.75,-1,964,-3,20.9,2.9,-26.4,21.2,2.9,-26.2,5.73,1.94,-20.3,27.5
2015-03-04 00:38:00,0.0,1.93711,0.00030,405.254,0.031,0.0884,0.0023,140.000,45.000,34235.81522,1.93879,405.686,34.644,45.067,45.000,0.00,0.09,-272.70,-272.75,-0,964,-3,20.9,2.9,-26.4,21.2,2.9,-26.2,5.73,1.94,-20.2,27.5
2015-03-04 00:39:00,0.0,1.93691,0.00030,405.236,0.028,0.0878,0.0017,139.996,45.000,34234.09339,1.93859,405.663,34.685,45.067,45.000,0.00,0.09,-272.70,-272.76,-0,965,-3,20.9,2.8,-26.4,21.2,2.8,-26.2,5.73,1.95,-20.3,27.5
2015-03-04 00:40:00,0.0,1.93710,0.00044,405.247,0.034,0.0878,0.0017,140.003,45.000,34235.62301,1.93877,405.674,34.688,45.067,45.000,0.00,0.09,-272.70,-272.76,0,964,-3,20.9,2.8,-26.5,21.2,2.8,-26.2,5.73,2.00,-20.3,27.5
2015-03-04 00:41:00,0.0,1.93732,0.00063,405.267,0.049,0.0882,0.0010,140.005,45.000,34238.54977,1.93898,405.697,34.688,45.067,45.000,0.00,0.09,-272.70,-272.76,0,963,-3,20.9,2.8,-26.4,21.2,2.9,-26.2,5.73,2.02,-20.2,27.5
2015-03-04 00:42:00,0.0,1.93762,0.00036,405.285,0.025,0.0871,0.0014,140.000,45.000,34237.24637,1.93930,405.710,34.666,45.067,45.000,0.00,0.09,-272.70,-272.76,0,963,-3,20.9,2.8,-26.5,21.2,2.8,-26.3,5.73,2.02,-20.3,27.5
2015-03-04 00:43:00,0.0,1.93763,0.00040,405.284,0.036,0.0874,0.0015,139.999,45.000,34237.36298,1.93929,405.711,34.629,45.067,45.000,0.00,0.09,-272.70,-272.76,-0,962,-3,20.9,2.8,-26.6,21.2,2.8,-26.3,5.73,1.98,-20.3,27.5
2015-03-04 00:44:00,0.0,1.93759,0.00036,405.302,0.031,0.0876,0.0016,140.002,45.000,34235.42609,1.93929,405.728,34.610,45.067,45.000,0.00,0.09,-272.70,-272.75,-1,963,-3,20.9,2.8,-26.5,21.3,2.8,-26.3,5.73,1.94,-20.3,27.5
2015-03-04 00:45:00,0.0,1.93774,0.00044,405.306,0.032,0.0867,0.0019,139.999,45.000,34235.59534,1.93937,405.730,34.616,45.068,45.000,0.00,0.09,-272.70,-272.75,-1,964,-3,20.9,2.8,-26.6,21.2,2.8,-26.3,5.73,1.94,-20.2,27.5
2015-03-04 00:46:00,0.0,1.93753,0.00036,405.305,0.031,0.0862,0.0021,140.000,45.000,34236.92073,1.93919,405.725,34.625,45.068,45.000,0.00,0.09,-272.70,-272.76,-1,965,-3,20.9,2.8,-26.7,21.3,2.8,-26.4,5.73,1.98,-20.2,27.5
2015-03-04 00:47:00,0.0,1.93758,0.00029,405.298,0.031,0.0873,0.0018,139.997,45.000,34237.41125,1.93923,405.724,34.633,45.068,45.000,0.00,0.09,-272.70,-272.76,-0,965,-3,20.9,2.8,-26.7,21.3,2.8,-26.4,5.73,2.01,-20.2,27.5
2015-03-04 00:48:00,0.0,1.93787,0.00041,405.312,0.026,0.0861,0.0014,140.002,45.000,34235.55231,1.93953,405.732,34.636,45.068,45.000,0.00,0.09,-272.70,-272.76,0,964,-3,20.9,2.8,-26.6,21.3,2.8,-26.4,5.73,2.02,-20.2,27.5
2015-03-04 00:49:00,0.0,1.93779,0.00045,405.318,0.032,0.0859,0.0018,139.999,45.000,34237.00253,1.93942,405.737,34.641,45.067,45.000,0.00,0.09,-272.70,-272.75,0,963,-3,20.9,2.8,-26.7,21.3,2.8,-26.5,5.73,2.00,-20.2,27.5
2015-03-04 00:50:00,0.0,1.93777,0.00037,405.319,0.038,0.0852,0.0018,140.003,45.000,34237.08392,1.93942,405.736,34.668,45.067,45.000,0.00,0.09,-272.70,-272.76,0,962,-3,20.9,2.8,-26.7,21.3,2.8,-26.5,5.73,1.95,-20.2,27.5
2015-03-04 00:51:00,0.0,1.93757,0.00055,405.293,0.028,0.0854,0.0016,139.998,45.000,34238.72133,1.93918,405.710,34.687,45.067,45.000,0.00,0.09,-272.70,-272.75,0,962,-3,20.9,2.8,-26.6,21.3,2.8,-26.5,5.73,1.93,-20.2,27.5
2015-03-04 00:52:00,0.0,1.93724,0.00025,405.307,0.035,0.0859,0.0021,139.999,45.000,34237.04887,1.93889,405.724,34.692,45.067,45.000,0.00,0.09,-272.70,-272.75,-0,962,-3,20.9,2.8,-26.7,21.3,2.8,-26.5,5.73,1.95,-20.2,27.5
2015-03-04 00:53:00,0.0,1.93729,0.00038,405.302,0.033,0.0866,0.0016,140.004,45.000,34239.06281,1.93893,405.725,34.712,45.067,45.000,0.00,0.09,-272.70,-272.76,-1,964,-3,20.9,2.8,-26.6,21.3,2.8,-26.5,5.73,2.01,-20.2,27.5
2015-03-04 00:54:00,0.0,1.93739,0.00031,405.293,0.036,0.0865,0.0019,140.000,45.000,34239.91675,1.93904,405.714,34.716,45.067,45.000,0.00,0.09,-272.70,-272.76,-1,963,-3,20.9,2.8,-26.6,21.3,2.8,-26.5,5.73,2.03,-20.2,27.5
2015-03-04 00:55:00,0.0,1.93738,0.00042,405.284,0.033,0.0870,0.0014,140.004,45.000,34238.93815,1.93904,405.708,34.725,45.067,45.000,0.00,0.09,-272.70,-272.76,-1,964,-3,21.0,2.8,-26.6,21.2,2.8,-26.4,5.73,2.02,-20.2,27.5
2015-03-04 00:56:00,0.0,1.93712,0.00046,405.273,0.031,0.0865,0.0013,140.000,45.000,34239.59177,1.93880,405.696,34.730,45.067,45.000,0.00,0.09,-272.69,-272.76,-0,964,-3,21.0,2.8,-26.6,21.3,2.8,-26.4,5.73,1.95,-20.2,27.6
2015-03-04 00:57:00,0.0,1.93726,0.00026,405.293,0.035,0.0864,0.0020,139.999,45.000,34238.74237,1.93889,405.714,34.719,45.067,45.000,0.00,0.09,-272.70,-272.76,0,964,-3,20.9,2.8,-26.6,21.3,2.8,-26.4,5.73,1.92,-20.2,27.5
2015-03-04 00:58:00,0.0,1.93714,0.00028,405.278,0.034,0.0866,0.0018,139.998,45.000,34237.85415,1.93880,405.700,34.697,45.067,45.000,0.00,0.09,-272.70,-272.75,0,963,-3,21.0,2.8,-26.6,21.3,2.8,-26.4,5.73,1.93,-20.2,27.5
2015-03-04 00:59:00,0.0,1.93713,0.00039,405.283,0.027,0.0867,0.0016,140.002,45.000,34240.15404,1.93879,405.706,34.688,45.067,45.000,0.00,0.09,-272.70,-272.75,0,962,-3,20.9,2.8,-26.6,21.3,2.8,-26.4,5.73,1.98,-20.2,27.5
2015-03-04 01:00:00,0.0,1.93751,0.00031,405.290,0.027,0.0868,0.0019,139.996,45.000,34235.38397,1.93913,405.713,34.687,45.067,45.000,0.00,0.09,-272.71,-272.76,-0,962,-3,20.9,2.8,-26.5,21.3,2.8,-26.4,5.73,2.03,-20.2,27.6
2015-03-04 01:01:00,0.0,1.93744,0.00032,405.297,0.040,0.0869,0.0013,139.999,45.000,34235.10429,1.93913,405.722,34.691,45.067,45.000,0.00,0.09,-272.70,-272.76,-0,962,-3,21.0,2.8,-26.5,21.3,2.8,-26.3,5.73,2.03,-20.2,27.6
2015-03-04 01:02:00,0.0,1.93728,0.00036,405.258,0.034,0.0871,0.0016,140.002,45.000,34239.01638,1.93894,405.682,34.707,45.068,45.000,0.00,0.09,-272.70,-272.75,-1,962,-3,21.0,2.8,-26.5,21.3,2.8,-26.3,5.73,1.99,-20.2,27.6
2015-03-04 01:03:00,0.0,1.93749,0.00049,405.291,0.044,0.0886,0.0028,139.999,45.000,34237.84644,1.93916,405.723,34.694,45.068,45.000,0.00,0.09,-272.70,-272.76,-1,964,-3,21.0,2.8,-26.5,21.3,2.8,-26.3,5.73,1.94,-20.2,27.6
2015-03-04 01:04:00,0.0,1.93726,0.00032,405.294,0.036,0.0873,0.0022,140.001,45.000,34235.88446,1.93893,405.719,34.688,45.067,45.000,0.00,0.09,-272.70,-272.76,-1,964,-3,21.0,2.8,-26.5,21.3,2.8,-26.3,5.73,1.93,-20.2,27.5
2015-03-04 01:05:00,0.0,1.93737,0.00038,405.290,0.030,0.0877,0.0017,140.003,45.000,34235.08452,1.93907,405.719,34.693,45.067,45.000,0.00,0.09,-272.70,-272.75,-1,965,-3,21.0,2.8,-26.5,21.3,2.8,-26.3,5.73,1.97,-20.2,27.5
2015-03-04 01:06:00,0.0,1.93704,0.00039,405.236,0.030,0.0881,0.0018,139.999,45.000,34234.76585,1.93870,405.667,34.744,45.067,45.000,0.00,0.09,-272.70,-272.75,-1,964,-3,21.0,2.8,-26.4,21.3,2.8,-26.3,5.73,2.01,-20.1,27.6
2015-03-04 01:07:00,0.0,1.93692,0.00050,405.245,0.041,0.0887,0.0016,139.997,45.000,34237.10418,1.93860,405.676,34.750,45.067,45.000,0.00,0.09,-272.70,-272.76,-0,964,-3,21.0,2.9,-26.4,21.3,2.9,-26.2,5.73,2.02,-20.1,27.6
2015-03-04 01:08:00,0.0,1.93745,0.00039,405.285,0.021,0.0884,0.0013,139.999,45.000,34236.61099,1.93916,405.716,34.751,45.067,45.000,0.00,0.09,-272.70,-272.75,0,964,-3,21.0,2.8,-26.4,21.3,2.9,-26.2,5.73,1.99,-20.1,27.6
2015-03-04 01:09:00,0.0,1.93733,0.00041,405.281,0.038,0.0892,0.0015,140.002,45.000,34235.54862,1.93901,405.716,34.750,45.067,45.000,0.00,0.09,-272.70,-272.75,0,963,-3,21.0,2.9,-26.4,21.3,2.8,-26.2,5.73,1.93,-20.1,27.5
2015-03-04 01:10:00,0.0,1.93705,0.00023,405.243,0.033,0.0892,0.0017,140.000,45.000,34235.72216,1.93877,405.678,34.743,45.067,45.000,0.00,0.09,-272.70,-272.76,0,963,-3,21.0,2.9,-26.3,21.3,2.9,-26.1,5.73,1.92,-20.1,27.5
2015-03-04 01:11:00,0.0,1.93715,0.00047,405.279,0.031,0.0897,0.0012,139.999,45.000,34234.50249,1.93884,405.716,34.750,45.067,45.000,0.00,0.09,-272.69,-272.76,1,962,-3,21.0,2.9,-26.3,21.3,2.9,-26.1,5.73,1.96,-20.1,27.5
2015-03-04 01:12:00,0.0,1.93705,0.00036,405.273,0.028,0.0902,0.0014,139.998,45.000,34235.05524,1.93880,405.713,34.750,45.067,45.000,0.00,0.09,-272.69,-272.76,-0,962,-3,21.0,2.9,-26.3,21.3,2.9,-26.0,5.73,2.02,-20.1,27.6
2015-03-04 01:13:00,0.0,1.93687,0.00036,405.252,0.024,0.0897,0.0015,139.999,45.000,34235.98691,1.93857,405.690,34.749,45.067,45.000,0.00,0.09,-272.70,-272.75,-1,962,-3,21.0,2.9,-26.2,21.3,2.9,-26.0,5.73,2.04,-20.1,27.6
2015-03-04 01:14:00,0.0,1.93694,0.00040,405.240,0.035,0.0900,0.0016,139.998,45.000,34235.96176,1.93863,405.678,34.755,45.067,45.000,0.00,0.09,-272.70,-272.76,-1,962,-3,21.0,2.9,-26.2,21.3,2.9,-26.0,5.73,2.01,-20.1,27.6
2015-03-04 01:15:00,0.0,1.93670,0.00026,405.242,0.030,0.0905,0.0017,139.999,45.000,34238.11253,1.93846,405.684,34.766,45.067,45.000,0.00,0.09,-272.70,-272.76,-1,964,-3,21.0,2.9,-26.2,21.3,2.9,-26.0,5.73,1.96,-20.1,27.6
2015-03-04 01:16:00,0.0,1.93703,0.00022,405.251,0.028,0.0892,0.0019,140.000,45.000,34237.72816,1.93872,405.687,34.763,45.067,45.000,0.00,0.09,-272.70,-272.75,-1,964,-3,21.0,2.9,-26.1,21.3,2.9,-26.0,5.73,1.92,-20.1,27.6
2015-03-04 01:17:00,0.0,1.93742,0.00042,405.276,0.025,0.0901,0.0015,139.999,45.000,34235.59477,1.93914,405.714,34.756,45.067,45.000,0.00,0.09,-272.70,-272.76,-1,965,-3,21.0,2.9,-26.2,21.3,2.9,-26.0,5.73,1.94,-20.1,27.6
2015-03-04 01:18:00,0.0,1.93712,0.00041,405.277,0.032,0.0906,0.0015,140.002,45.000,34234.85298,1.93883,405.719,34.754,45.067,45.000,0.00,0.09,-272.70,-272.75,-0,964,-3,21.0,2.9,-26.2,21.3,2.9,-26.0,5.73,1.98,-20.1,27.6
2015-03-04 01:19:00,0.0,1.93724,0.00032,405.258,0.033,0.0906,0.0015,140.000,45.000,34236.35912,1.93895,405.698,34.746,45.067,45.000,0.00,0.09,-272.70,-272.75,0,964,-3,21.0,2.9,-26.2,21.3,2.9,-26.0,5.73,2.02,-20.1,27.6
2015-03-04 01:20:00,0.0,1.93725,0.00043,405.293,0.035,0.0907,0.0016,140.000,45.000,34235.19911,1.93899,405.737,34.693,45.067,45.000,0.00,0.09,-272.70,-272.75,1,963,-3,21.0,2.9,-26.2,21.3,2.9,-26.0,5.73,2.01,-20.1,27.6
2015-03-04 01:21:00,0.0,1.93762,0.00037,405.290,0.033,0.0901,0.0019,139.999,45.000,34237.40453,1.93934,405.729,34.689,45.068,45.001,0.00,0.09,-272.70,-272.75,-0,962,-3,21.0,2.9,-26.2,21.3,2.9,-25.9,5.73,1.98,-20.1,27.6
2015-03-04 01:22:00,0.0,1.93791,0.00047,405.316,0.032,0.0897,0.0020,139.997,45.000,34236.76011,1.93961,405.753,34.690,45.068,45.001,0.00,0.09,-272.70,-272.76,-1,963,-3,21.0,2.9,-26.2,21.3,2.9,-26.0,5.73,1.94,-20.1,27.6
2015-03-04 01:23:00,0.0,1.93760,0.00034,405.310,0.041,0.0907,0.0023,139.998,45.000,34236.42328,1.93937,405.752,34.688,45.068,45.001,0.00,0.09,-272.70,-272.76,-1,963,-3,21.0,2.9,-26.2,21.3,2.9,-26.0,5.73,1.93,-20.1,27.6
2015-03-04 01:24:00,0.0,1.93744,0.00042,405.281,0.033,0.0911,0.0020,140.000,45.000,34238.88499,1.93918,405.726,34.688,45.068,45.000,0.00,0.09,-272.70,-272.76,-1,964,-3,21.0,2.9,-26.2,21.3,2.9,-26.0,5.73,1.97,-20.1,27.6
2015-03-04 01:25:00,0.0,1.93759,0.00043,405.281,0.030,0.0913,0.0011,140.002,45.000,34238.26465,1.93930,405.725,34.689,45.068,45.000,0.00,0.09,-272.69,-272.75,-1,965,-3,21.0,2.9,-26.1,21.3,2.9,-25.9,5.73,2.01,-20.1,27.6
2015-03-04 01:26:00,0.0,1.93731,0.00050,405.304,0.029,0.0908,0.0016,140.000,45.000,34234.71026,1.93905,405.747,34.684,45.068,45.000,0.00,0.09,-272.70,-272.75,-1,965,-3,21.0,2.9,-26.1,21.3,2.9,-26.0,5.73,2.03,-20.1,27.6
2015-03-04 01:27:00,0.0,1.93748,0.00046,405.320,0.029,0.0911,0.0014,140.000,45.000,34236.77225,1.93922,405.765,34.687,45.067,45.000,0.00,0.09,-272.70,-272.76,-0,964,-3,21.0,2.9,-26.1,21.3,2.9,-26.0,5.73,1.99,-20.1,27.6
2015-03-04 01:28:00,0.0,1.93817,0.00046,405.374,0.043,0.0899,0.0017,140.000,45.000,34237.03881,1.93984,405.811,34.687,45.067,45.000,0.00,0.09,-272.70,-272.75,0,963,-3,21.0,2.9,-26.2,21.3,2.9,-26.0,5.73,1.95,-20.1,27.6
2015-03-04 01:29:00,0.0,1.93784,0.00055,405.335,0.035,0.0896,0.0012,140.002,45.000,34237.32492,1.93960,405.774,34.688,45.067,45.000,0.00,0.09,-272.70,-272.75,0,963,-3,21.0,2.9,-26.3,21.3,2.9,-26.0,5.73,1.93,-20.1,27.6
2015-03-04 01:30:00,0.0,1.93811,0.00045,405.346,0.026,0.0897,0.0016,139.999,45.000,34235.23315,1.93980,405.784,34.688,45.067,45.000,0.00,0.09,-272.70,-272.76,-0,962,-3,21.0,2.9,-26.3,21.3,2.9,-26.1,5.73,1.95,-20.1,27.6
2015-03-04 01:31:00,0.0,1.93756,0.00042,405.345,0.027,0.0892,0.0021,139.999,45.000,34235.23909,1.93927,405.781,34.688,45.067,45.000,0.00,0.09,-272.70,-272.75,-0,963,-3,21.0,2.9,-26.3,21.3,2.9,-26.1,5.73,2.00,-20.1,27.6
2015-03-04 01:32:00,0.0,1.93753,0.00033,405.372,0.027,0.0906,0.0017,139.998,45.000,34236.00154,1.93929,405.814,34.682,45.067,45.000,0.00,0.09,-272.69,-272.75,-1,964,-3,21.0,2.9,-26.2,21.3,2.9,-26.0,5.73,2.04,-20.1,27.7
2015-03-04 01:33:00,0.0,1.93773,0.00045,405.346,0.028,0.0903,0.0016,140.000,45.000,34239.22722,1.93941,405.786,34.678,45.067,45.000,0.00,0.09,-272.70,-272.75,-1,964,-3,21.0,2.9,-26.2,21.3,2.9,-26.0,5.73,2.02,-20.1,27.6
2015-03-04 01:34:00,0.0,1.93836,0.00039,405.343,0.031,0.0886,0.0018,140.001,45.000,34237.55491,1.94009,405.775,34.673,45.067,45.000,0.00,0.09,-272.70,-272.75,-1,965,-3,21.0,2.9,-26.4,21.3,2.9,-26.1,5.73,1.97,-20.1,27.6
2015-03-04 01:35:00,0.0,1.93769,0.00038,405.352,0.035,0.0897,0.0012,140.003,45.000,34236.82310,1.93941,405.791,34.640,45.067,45.000,0.00,0.09,-272.69,-272.75,-1,965,-3,21.0,2.9,-26.3,21.3,2.9,-26.1,5.73,1.93,-20.1,27.6
2015-03-04 01:36:00,0.0,1.93724,0.00044,405.319,0.036,0.0899,0.0014,140.000,45.000,34238.88540,1.93896,405.759,34.627,45.067,45.000,0.00,0.09,-272.70,-272.76,-0,965,-3,21.0,2.9,-26.2,21.3,2.9,-26.0,5.73,1.92,-20.1,27.7
2015-03-04 01:37:00,0.0,1.93736,0.00044,405.316,0.032,0.0908,0.0013,140.002,45.000,34239.09009,1.93906,405.758,34.624,45.068,45.000,0.00,0.09,-272.70,-272.76,-0,964,-3,21.0,2.9,-26.2,21.3,2.9,-25.9,5.73,1.96,-20.1,27.7
2015-03-04 01:38:00,0.0,1.93720,0.00053,405.322,0.041,0.0915,0.0021,140.002,45.000,34241.08489,1.93900,405.769,34.629,45.068,45.000,0.00,0.09,-272.70,-272.75,-0,963,-3,21.0,2.9,-26.1,21.3,2.9,-25.9,5.73,2.02,-20.1,27.7
2015-03-04 01:39:00,0.0,1.93693,0.00041,405.323,0.039,0.0935,0.0014,140.000,45.000,34240.76772,1.93867,405.778,34.669,45.068,45.000,0.00,0.09,-272.70,-272.75,-0,963,-3,21.0,3.0,-25.9,21.3,3.0,-25.8,5.73,2.04,-20.1,27.6
2015-03-04 01:40:00,0.0,1.93710,0.00051,405.340,0.030,0.0931,0.0015,139.999,45.000,34239.63785,1.93886,405.795,34.686,45.067,45.000,0.00,0.09,-272.70,-272.76,-0,964,-3,21.0,3.0,-25.9,21.3,3.0,-25.7,5.73,2.01,-20.1,27.6
2015-03-04 01:41:00,0.0,1.93742,0.00045,405.334,0.030,0.0927,0.0018,139.999,45.000,34241.92561,1.93921,405.787,34.689,45.067,45.000,0.00,0.09,-272.70,-272.76,-1,965,-3,21.0,3.0,-25.9,21.3,3.0,-25.7,5.73,1.96,-20.1,27.6
2015-03-04 01:42:00,0.0,1.93737,0.00041,405.353,0.037,0.0926,0.0017,140.001,45.000,34243.16414,1.93912,405.804,34.700,45.067,45.000,0.00,0.09,-272.70,-272.76,-0,965,-3,21.0,3.0,-25.9,21.3,3.0,-25.7,5.73,1.93,-20.1,27.7
2015-03-04 01:43:00,0.0,1.93765,0.00031,405.365,0.029,0.0926,0.0021,140.003,45.000,34242.39273,1.93942,405.815,34.716,45.067,45.000,0.00,0.09,-272.70,-272.75,-0,965,-3,21.0,3.0,-26.0,21.3,3.0,-25.7,5.73,1.93,-20.1,27.7
2015-03-04 01:44:00,0.0,1.93775,0.00056,405.365,0.035,0.0928,0.0013,139.999,45.000,34242.50262,1.93952,405.820,34.737,45.067,45.000,0.00,0.09,-272.70,-272.75,-0,964,-3,21.0,3.0,-26.0,21.4,3.0,-25.7,5.73,1.97,-20.1,27.6
2015-03-04 01:45:00,0.0,1.93815,0.00042,405.387,0.027,0.0911,0.0014,140.002,45.000,34241.08118,1.93990,405.832,34.699,45.067,45.000,0.00,0.09,-272.70,-272.75,-0,963,-3,21.0,3.0,-26.0,21.4,2.9,-25.8,5.73,2.02,-20.1,27.6
2015-03-04 01:46:00,0.0,1.93765,0.00030,405.370,0.027,0.0923,0.0018,139.998,45.000,34240.79562,1.93941,405.819,34.688,45.067,45.000,0.00,0.09,-272.70,-272.75,-1,963,-3,21.0,3.0,-26.0,21.4,2.9,-25.8,5.73,2.03,-20.1,27.6